QPF
0.00 0.00 0.00 0.00 0.00 0.00 0.00 0.00 0.00 0.00 0.00 0.00 0.00 0.00 0.00 0.00 0.00 0.00 0.00 0.00 0.01 0.01 0.00 0.00 0.00 0.00 0.00 0.00 0.00 0.00 0.00 0.00 0.00 0.00 0.00 0.00 0.00 0.00 0.00 0.00 0.00 0.01 0.01 0.01
0.00 0.00 0.00 0.00 0.00 0.00 0.00 0.00 0.00 0.00 0.00 0.00 0.00 0.00 0.00 0.00 0.00 0.00 0.00 0.00 0.00 0.00 0.00 0.00 0.00 0.00 0.00 0.00 0.00 0.00 0.00 0.00 0.00 0.00 0.00 0.00 0.00 0.00 0.00 0.00 0.00 0.00 0.00 0.00
0.00 0.00 0.00 0.00 0.00 0.00 0.00 0.00 0.00 0.00 0.00 0.00 0.00 0.00 0.00 0.00 0.00 0.00 0.00 0.00 0.00 0.00 0.00 0.00 0.00 0.00 0.00 0.00 0.00 0.00 0.00 0.00 0.00 0.00 0.00 0.00 0.00 0.00 0.00 0.00 0.00 0.00 0.00 0.00
0.00 0.00 0.00 0.00 0.00 0.00 0.00 0.00 0.00 0.00 0.00 0.00 0.00 0.01 0.00 0.00 0.00 0.00 0.00 0.01 0.01 0.01 0.00 0.00 0.00 0.00 0.00 0.00 0.00 0.00 0.00 0.00 0.00 0.00 0.00 0.00 0.00 0.00 0.00 0.00 0.00 0.00 0.00 0.01
0.00 0.00 0.00 0.00 0.00 0.00 0.00 0.00 0.00 0.00 0.00 0.00 0.00 0.00 0.00 0.00 0.01 0.02 0.02 0.01 0.01 0.01 0.00 0.00 0.00 0.00 0.00 0.00 0.00 0.00 0.00 0.00 0.00 0.00 0.00 0.00 0.00 0.00 0.00 0.00 0.00 0.00 0.00 0.00
0.00 0.00 0.00 0.00 0.00 0.00 0.00 0.00 0.00 0.00 0.00 0.00 0.00 0.01 0.03 0.04 0.02 0.13 0.05 0.01 0.02 0.01 0.00 0.00 0.00 0.00 0.00 0.00 0.00 0.00 0.00 0.00 0.00 0.00 0.00 0.00 0.00 0.00 0.00 0.00 0.00 0.00 0.00 0.01
0.00 0.00 0.00 0.00 0.00 0.00 0.00 0.00 0.00 0.00 0.00 0.00 0.00 0.01 0.08 0.03 0.02 0.05 0.04 0.02 0.02 0.00 0.02 0.01 0.00 0.00 0.00 0.00 0.00 0.00 0.00 0.00 0.00 0.00 0.00 0.00 0.00 0.01 0.01 0.01 0.01 0.00 0.00 0.03
0.00 0.00 0.00 0.00 0.00 0.00 0.00 0.00 0.00 0.00 0.00 0.00 0.00 0.02 0.03 0.01 0.03 0.02 0.01 0.01 0.01 0.07 0.05 0.00 0.00 0.00 0.00 0.00 0.00 0.00 0.00 0.00 0.00 0.00 0.00 0.00 0.02 0.02 0.02 0.02 0.01 0.02 0.04 0.04
0.00 0.00 0.00 0.00 0.00 0.00 0.00 0.00 0.00 0.00 0.00 0.00 0.00 0.03 0.02 0.00 0.01 0.01 0.00 0.01 0.02 0.03 0.00 0.00 0.01 0.00 0.00 0.00 0.00 0.00 0.00 0.00 0.00 0.01 0.01 0.02 0.04 0.05 0.03 0.02 0.02 0.03 0.05 0.06
0.00 0.00 0.00 0.00 0.00 0.00 0.00 0.00 0.00 0.00 0.00 0.00 0.00 0.02 0.02 0.00 0.01 0.01 0.01 0.00 0.00 0.00 0.00 0.00 0.00 0.00 0.00 0.00 0.00 0.00 0.00 0.00 0.01 0.02 0.03 0.04 0.04 0.02 0.02 0.03 0.04 0.04 0.05 0.07
0.00 0.00 0.00 0.00 0.00 0.00 0.00 0.00 0.00 0.00 0.00 0.00 0.01 0.04 0.00 0.01 0.03 0.04 0.01 0.00 0.00 0.00 0.00 0.00 0.00 0.00 0.00 0.00 0.00 0.00 0.00 0.00 0.01 0.03 0.02 0.01 0.01 0.01 0.02 0.03 0.04 0.04 0.06 0.09
0.00 0.00 0.00 0.00 0.00 0.00 0.00 0.00 0.00 0.00 0.02 0.02 0.02 0.05 0.00 0.00 0.02 0.06 0.04 0.00 0.00 0.00 0.00 0.00 0.00 0.00 0.00 0.00 0.00 0.00 0.00 0.01 0.01 0.01 0.00 0.00 0.01 0.01 0.02 0.03 0.03 0.01 0.06 0.05
0.00 0.00 0.00 0.00 0.00 0.00 0.00 0.00 0.00 0.00 0.00 0.00 0.00 0.03 0.00 0.01 0.03 0.05 0.01 0.00 0.00 0.00 0.00 0.00 0.00 0.00 0.00 0.01 0.01 0.01 0.01 0.01 0.01 0.00 0.00 0.00 0.00 0.01 0.02 0.02 0.03 0.02 0.02 0.01
0.00 0.00 0.00 0.00 0.00 0.00 0.00 0.00 0.00 0.00 0.00 0.00 0.00 0.00 0.00 0.01 0.02 0.01 0.00 0.00 0.00 0.00 0.00 0.00 0.00 0.00 0.00 0.01 0.01 0.01 0.02 0.02 0.00 0.00 0.01 0.01 0.01 0.01 0.02 0.02 0.02 0.03 0.01 0.00
0.00 0.00 0.00 0.00 0.00 0.00 0.00 0.00 0.00 0.00 0.00 0.00 0.00 0.00 0.00 0.00 0.00 0.00 0.00 0.00 0.00 0.00 0.00 0.00 0.00 0.00 0.00 0.00 0.01 0.01 0.02 0.00 0.00 0.01 0.00 0.00 0.01 0.02 0.01 0.01 0.01 0.01 0.02 0.01
0.00 0.00 0.00 0.00 0.00 0.00 0.00 0.00 0.00 0.00 0.00 0.00 0.00 0.00 0.00 0.00 0.00 0.00 0.00 0.00 0.00 0.00 0.00 0.00 0.00 0.00 0.00 0.00 0.01 0.00 0.00 0.00 0.00 0.00 0.00 0.01 0.01 0.00 0.02 0.02 0.01 0.01 0.01 0.01
0.00 0.00 0.00 0.00 0.00 0.00 0.00 0.00 0.00 0.00 0.00 0.00 0.00 0.00 0.00 0.00 0.00 0.00 0.00 0.00 0.00 0.00 0.00 0.00 0.00 0.00 0.00 0.00 0.01 0.01 0.01 0.01 0.01 0.00 0.00 0.00 0.01 0.00 0.00 0.01 0.02 0.02 0.02 0.01
0.00 0.00 0.00 0.00 0.00 0.00 0.00 0.00 0.00 0.00 0.00 0.00 0.00 0.00 0.00 0.00 0.00 0.00 0.00 0.00 0.00 0.00 0.00 0.00 0.00 0.00 0.00 0.00 0.01 0.01 0.00 0.00 0.00 0.00 0.00 0.00 0.00 0.00 0.00 0.00 0.00 0.00 0.00 0.00
0.00 0.00 0.00 0.00 0.00 0.00 0.00 0.00 0.00 0.00 0.00 0.00 0.00 0.00 0.00 0.00 0.00 0.00 0.00 0.00 0.00 0.00 0.00 0.00 0.00 0.00 0.01 0.01 0.01 0.00 0.00 0.00 0.00 0.00 0.00 0.00 0.00 0.01 0.00 0.00 0.01 0.01 0.01 0.00
0.00 0.00 0.00 0.00 0.00 0.00 0.00 0.00 0.00 0.00 0.00 0.00 0.00 0.00 0.00 0.00 0.00 0.00 0.00 0.00 0.00 0.00 0.00 0.00 0.00 0.01 0.02 0.01 0.00 0.00 0.00 0.00 0.00 0.00 0.00 0.00 0.00 0.00 0.00 0.00 0.00 0.00 0.00 0.00
0.00 0.00 0.00 0.00 0.00 0.00 0.00 0.00 0.00 0.00 0.00 0.00 0.00 0.00 0.00 0.00 0.00 0.00 0.00 0.00 0.00 0.00 0.00 0.01 0.01 0.01 0.01 0.00 0.00 0.00 0.00 0.00 0.00 0.00 0.00 0.00 0.00 0.00 0.00 0.00 0.01 0.01 0.00 0.00
0.00 0.00 0.00 0.00 0.00 0.00 0.00 0.00 0.00 0.00 0.00 0.00 0.00 0.00 0.00 0.00 0.00 0.00 0.00 0.00 0.00 0.00 0.01 0.01 0.00 0.00 0.00 0.00 0.00 0.00 0.00 0.00 0.00 0.00 0.00 0.00 0.00 0.00 0.00 0.01 0.00 0.02 0.02 0.01
0.00 0.00 0.00 0.00 0.00 0.00 0.00 0.00 0.00 0.00 0.00 0.00 0.00 0.00 0.00 0.00 0.00 0.00 0.00 0.00 0.00 0.00 0.01 0.00 0.00 0.01 0.00 0.00 0.00 0.00 0.00 0.00 0.00 0.00 0.00 0.00 0.00 0.00 0.00 0.01 0.02 0.02 0.01 0.01
0.00 0.00 0.00 0.00 0.00 0.00 0.00 0.00 0.00 0.00 0.00 0.00 0.00 0.00 0.00 0.00 0.00 0.00 0.00 0.00 0.00 0.01 0.01 0.00 0.00 0.01 0.00 0.00 0.00 0.00 0.00 0.01 0.01 0.00 0.01 0.01 0.00 0.02 0.01 0.01 0.02 0.01 0.00 0.00
0.00 0.00 0.00 0.00 0.00 0.00 0.00 0.00 0.00 0.00 0.00 0.00 0.00 0.00 0.00 0.00 0.00 0.00 0.00 0.01 0.02 0.01 0.01 0.00 0.00 0.01 0.00 0.00 0.01 0.00 0.00 0.01 0.01 0.01 0.01 0.01 0.00 0.01 0.01 0.01 0.00 0.00 0.00 0.00
0.00 0.00 0.00 0.00 0.00 0.00 0.00 0.00 0.00 0.00 0.00 0.00 0.00 0.00 0.00 0.00 0.00 0.00 0.00 0.01 0.01 0.01 0.00 0.00 0.01 0.01 0.00 0.00 0.00 0.01 0.01 0.01 0.02 0.01 0.00 0.00 0.02 0.02 0.03 0.02 0.00 0.00 0.00 0.00
MSLP
1006.86 1005.76 1005.77 1006.61 1006.98 1007.49 1008.33 1009.46 1011.12 1012.79 1013.92 1014.50 1015.60 1017.28 1018.47 1019.10 1019.46 1020.53 1021.42 1022.22 1022.96 1023.59 1024.03 1024.24 1024.38 1023.99 1023.89 1023.99 1023.83 1023.80 1023.71 1023.91 1023.41 1023.01 1022.72 1022.45 1022.11 1021.74 1021.43 1021.56 1021.80 1021.72 1021.41 1021.06
1006.49 1006.96 1007.88 1007.93 1008.01 1008.20 1008.70 1009.69 1011.26 1013.07 1014.01 1014.52 1015.78 1017.20 1018.75 1019.14 1019.58 1020.77 1021.57 1021.92 1022.45 1022.67 1022.96 1023.54 1023.66 1023.80 1023.73 1023.64 1023.73 1023.76 1023.87 1023.96 1023.75 1023.38 1023.28 1023.14 1022.68 1022.02 1021.85 1021.56 1021.85 1021.62 1021.68 1021.26
1006.21 1008.14 1008.67 1008.39 1008.39 1008.39 1009.02 1009.52 1011.09 1011.90 1013.80 1014.53 1015.70 1016.46 1018.27 1019.53 1020.31 1020.89 1021.39 1021.68 1021.73 1022.15 1022.60 1022.90 1023.22 1023.56 1023.46 1023.53 1023.64 1023.74 1023.85 1023.96 1024.00 1023.98 1023.16 1022.99 1022.33 1021.80 1021.47 1021.62 1021.28 1021.53 1021.41 1021.26
1007.71 1008.62 1008.59 1008.56 1008.80 1009.12 1008.63 1010.35 1011.06 1012.13 1012.54 1011.98 1014.15 1013.78 1015.43 1018.01 1019.88 1020.79 1021.05 1021.29 1021.50 1022.04 1022.69 1023.09 1022.92 1023.17 1023.36 1023.46 1023.48 1023.61 1023.84 1023.93 1023.79 1023.90 1023.51 1023.50 1022.66 1022.09 1022.18 1021.71 1021.53 1021.59 1021.21 1021.25
1008.29 1008.56 1008.63 1008.92 1009.80 1009.71 1010.25 1010.77 1010.96 1011.59 1011.65 1012.55 1013.08 1013.94 1014.24 1016.16 1018.69 1020.34 1021.02 1021.69 1022.12 1022.52 1022.63 1022.99 1023.10 1023.27 1023.32 1023.32 1023.49 1023.68 1023.93 1023.91 1023.93 1023.93 1023.80 1023.37 1022.93 1022.56 1022.09 1021.91 1021.79 1021.30 1020.89 1020.76
1008.81 1009.43 1009.70 1009.87 1010.42 1010.50 1010.94 1011.11 1011.18 1011.23 1011.08 1010.81 1011.97 1013.55 1014.50 1016.44 1017.87 1019.15 1021.02 1021.91 1022.37 1022.94 1023.28 1023.39 1023.16 1023.19 1023.09 1023.01 1023.32 1023.58 1023.81 1023.96 1023.94 1023.84 1023.63 1023.49 1023.40 1023.16 1022.63 1022.10 1021.60 1020.97 1020.68 1020.44
1009.30 1009.81 1010.29 1010.58 1009.98 1010.81 1010.93 1010.34 1009.85 1009.71 1009.66 1009.90 1012.35 1013.95 1017.07 1018.59 1019.40 1019.88 1020.96 1022.28 1023.11 1023.72 1024.44 1024.40 1023.02 1022.89 1023.14 1023.60 1023.81 1024.05 1023.74 1023.81 1023.73 1023.73 1023.66 1023.57 1023.44 1023.25 1022.72 1022.49 1021.94 1021.68 1020.75 1020.36
1009.19 1009.96 1010.73 1011.32 1011.39 1011.29 1011.02 1011.47 1010.74 1010.65 1010.40 1011.00 1012.45 1014.50 1019.01 1020.23 1020.70 1020.99 1021.93 1023.03 1023.77 1024.47 1024.74 1024.48 1023.45 1023.91 1023.80 1023.99 1024.41 1024.21 1023.84 1023.86 1023.82 1023.71 1023.88 1023.54 1023.53 1023.28 1022.90 1022.64 1022.28 1021.71 1021.57 1021.13
1010.06 1010.97 1012.07 1012.31 1012.16 1012.13 1011.43 1011.44 1012.57 1012.14 1011.38 1011.86 1012.73 1017.08 1019.56 1020.93 1021.59 1022.05 1022.73 1023.28 1024.14 1024.42 1024.45 1024.39 1024.25 1024.38 1024.92 1024.56 1024.65 1024.25 1024.14 1024.00 1024.03 1024.36 1024.25 1024.03 1024.00 1023.59 1023.23 1023.05 1022.72 1022.06 1021.84 1021.48
1011.43 1011.45 1012.60 1012.92 1012.80 1012.68 1012.98 1013.39 1012.65 1012.19 1012.28 1012.53 1013.08 1016.08 1019.32 1020.63 1021.63 1022.44 1022.74 1023.63 1023.95 1023.98 1024.57 1024.51 1024.87 1025.21 1025.22 1024.92 1024.30 1024.48 1024.55 1024.78 1024.62 1024.60 1024.50 1024.24 1024.21 1024.14 1024.02 1023.70 1023.13 1022.61 1022.05 1021.57
1012.26 1012.29 1013.01 1013.39 1013.81 1013.89 1013.52 1013.42 1013.94 1014.38 1014.34 1014.00 1014.51 1017.97 1020.09 1020.72 1021.31 1021.96 1022.45 1023.04 1023.47 1024.20 1024.32 1024.89 1025.44 1025.37 1024.75 1024.53 1024.43 1024.81 1025.20 1025.34 1024.84 1024.86 1024.78 1024.66 1024.67 1024.30 1023.84 1023.63 1023.44 1022.88 1022.34 1021.89
1013.95 1013.65 1013.29 1014.16 1015.47 1015.60 1015.52 1015.44 1015.31 1014.63 1015.16 1015.89 1016.33 1019.10 1020.18 1020.86 1021.59 1022.06 1022.67 1023.38 1024.01 1024.40 1024.88 1025.28 1024.90 1024.69 1024.83 1024.87 1025.16 1025.52 1025.68 1025.37 1025.17 1025.32 1025.43 1025.20 1024.60 1024.33 1024.05 1023.98 1023.88 1023.74 1023.34 1022.67
1014.83 1014.74 1014.25 1015.03 1016.03 1015.83 1016.18 1016.45 1016.44 1016.61 1016.43 1016.71 1016.82 1018.74 1020.47 1021.31 1021.70 1022.39 1022.76 1023.89 1024.36 1024.80 1025.14 1025.37 1025.18 1025.20 1025.72 1026.10 1026.27 1026.08 1025.87 1025.74 1025.72 1025.85 1025.50 1025.14 1025.23 1025.28 1024.76 1024.39 1024.14 1023.82 1023.62 1023.17
1015.71 1015.72 1015.53 1015.33 1016.22 1016.89 1016.90 1017.24 1017.11 1016.94 1016.70 1017.25 1018.34 1018.95 1019.95 1021.23 1021.85 1022.68 1023.63 1024.09 1024.98 1025.59 1025.58 1025.65 1025.79 1026.15 1026.66 1026.84 1026.91 1026.79 1026.76 1026.79 1026.45 1025.73 1025.50 1025.46 1025.70 1025.67 1025.34 1024.68 1024.45 1023.94 1023.45 1023.54
1015.92 1016.17 1016.55 1017.02 1017.43 1017.60 1017.78 1017.89 1018.02 1017.97 1018.34 1018.39 1019.04 1019.46 1020.57 1021.74 1022.34 1023.14 1023.95 1025.00 1025.38 1025.82 1025.93 1026.16 1026.57 1027.02 1027.47 1027.65 1027.50 1027.36 1027.17 1026.72 1026.09 1025.87 1025.72 1026.06 1026.22 1025.91 1025.44 1025.13 1024.79 1024.36 1023.86 1023.33
1016.68 1016.81 1017.08 1017.54 1018.05 1018.13 1018.17 1018.49 1018.51 1018.78 1019.13 1019.00 1019.47 1020.53 1021.56 1022.52 1023.11 1023.80 1024.77 1025.20 1025.79 1025.99 1026.49 1026.84 1027.21 1027.92 1028.11 1028.05 1027.98 1027.53 1027.06 1026.86 1026.45 1026.33 1026.17 1026.41 1026.36 1025.86 1025.33 1024.79 1024.48 1024.22 1024.01 1023.41
1016.59 1017.00 1017.10 1017.21 1018.27 1018.40 1018.13 1018.83 1018.87 1019.06 1019.37 1020.23 1020.11 1021.14 1022.07 1022.74 1023.60 1024.37 1025.11 1025.72 1026.09 1026.58 1027.09 1027.39 1028.16 1028.55 1028.56 1028.29 1028.14 1027.61 1027.36 1027.06 1026.96 1026.53 1026.22 1026.34 1026.13 1026.22 1025.89 1025.52 1025.21 1024.82 1024.46 1023.82
1016.91 1017.19 1017.35 1017.55 1018.26 1018.04 1019.09 1019.55 1019.75 1019.78 1019.79 1020.74 1021.12 1021.77 1022.46 1023.07 1024.21 1024.88 1025.45 1025.95 1026.60 1027.13 1027.74 1028.07 1028.80 1028.93 1028.64 1028.51 1027.96 1027.98 1027.70 1027.59 1027.48 1027.04 1026.73 1026.48 1026.24 1026.33 1026.15 1025.86 1025.58 1025.30 1024.97 1024.69
1017.18 1017.21 1017.64 1017.96 1018.22 1019.01 1019.34 1019.84 1020.07 1020.20 1020.43 1021.57 1021.77 1022.53 1023.24 1023.96 1024.47 1025.37 1026.24 1026.89 1027.30 1027.98 1028.39 1029.01 1029.26 1029.14 1028.89 1028.47 1028.61 1028.43 1028.18 1027.96 1027.68 1027.39 1027.05 1026.77 1026.43 1026.06 1026.27 1025.72 1025.54 1025.47 1025.13 1024.83
1017.59 1017.63 1017.69 1018.13 1018.34 1018.53 1019.72 1020.39 1020.69 1020.61 1021.02 1022.21 1022.57 1022.81 1023.46 1024.16 1023.60 1025.21 1026.54 1027.28 1027.92 1028.37 1029.10 1029.38 1029.29 1029.08 1028.93 1028.99 1028.98 1028.61 1028.19 1028.04 1027.90 1027.66 1027.38 1026.93 1026.68 1026.46 1026.33 1025.78 1025.43 1025.39 1025.00 1024.73
1017.17 1017.57 1017.94 1018.53 1018.83 1019.51 1020.46 1020.85 1020.87 1020.75 1022.42 1022.83 1023.21 1023.51 1023.94 1024.18 1025.34 1026.38 1027.13 1027.79 1028.72 1029.26 1029.26 1029.39 1029.39 1029.35 1029.53 1029.50 1029.20 1028.78 1028.33 1028.24 1028.10 1027.72 1027.42 1027.04 1026.82 1026.52 1026.20 1025.70 1025.56 1025.28 1025.29 1025.04
1017.56 1017.84 1018.29 1018.87 1019.18 1020.13 1021.34 1021.01 1021.38 1022.47 1023.06 1023.45 1023.84 1024.16 1024.72 1025.52 1026.26 1026.89 1027.51 1028.52 1029.22 1029.40 1029.29 1029.42 1029.45 1029.55 1029.63 1029.44 1029.13 1028.88 1028.52 1028.45 1028.10 1027.69 1027.41 1027.15 1026.79 1026.35 1025.85 1025.67 1025.46 1025.14 1024.89 1024.43
1018.39 1019.38 1019.36 1019.98 1020.39 1021.59 1021.95 1022.16 1022.88 1023.08 1023.38 1023.97 1024.40 1025.00 1025.49 1026.02 1026.64 1027.21 1028.29 1029.04 1029.47 1029.55 1029.49 1029.63 1029.24 1029.27 1029.49 1029.48 1029.25 1028.94 1028.69 1028.28 1027.79 1027.56 1027.32 1026.97 1026.61 1026.28 1025.93 1025.74 1025.54 1024.94 1024.71 1024.40
1019.54 1020.09 1019.75 1020.38 1021.23 1021.59 1022.28 1022.92 1023.35 1023.62 1024.16 1024.66 1025.15 1025.63 1025.88 1026.38 1026.98 1027.90 1028.53 1029.20 1029.42 1029.67 1029.37 1029.71 1029.26 1029.32 1029.33 1029.39 1029.16 1028.95 1028.50 1027.99 1027.72 1027.32 1027.08 1026.90 1026.60 1026.41 1026.16 1026.02 1025.89 1025.70 1025.77 1025.40
1020.29 1020.32 1020.47 1020.44 1021.11 1021.84 1022.47 1022.97 1023.70 1024.30 1024.84 1025.26 1025.66 1026.05 1026.43 1026.81 1027.35 1027.98 1028.80 1029.17 1029.72 1029.71 1029.74 1029.82 1029.55 1029.49 1029.47 1029.40 1028.97 1028.77 1028.34 1027.96 1027.70 1027.46 1027.17 1026.97 1026.53 1026.28 1026.21 1026.50 1027.07 1026.84 1027.59 1027.54
1021.39 1021.53 1020.81 1021.11 1021.90 1021.99 1022.57 1023.42 1024.09 1024.59 1025.10 1025.59 1026.10 1026.58 1026.99 1027.18 1027.69 1028.49 1028.82 1029.28 1029.77 1029.52 1030.15 1029.83 1029.61 1029.56 1029.59 1029.66 1028.94 1028.80 1028.59 1028.41 1028.06 1027.58 1027.00 1027.07 1026.64 1026.01 1025.87 1026.27 1027.34 1028.51 1028.21 1028.28
Thickness
5798 5798 5788 5785 5788 5784 5773 5757 5736 5730 5733 5725 5714 5699 5694 5695 5693 5678 5667 5657 5647 5638 5635 5631 5626 5626 5624 5620 5618 5614 5611 5604 5603 5601 5599 5598 5595 5595 5594 5589 5584 5582 5582 5582
5791 5769 5778 5784 5782 5774 5767 5750 5733 5725 5726 5722 5707 5690 5680 5684 5682 5667 5655 5650 5643 5641 5636 5628 5623 5619 5617 5614 5610 5606 5600 5595 5591 5589 5585 5582 5581 5582 5580 5578 5573 5571 5568 5568
5784 5769 5777 5774 5769 5763 5758 5751 5733 5731 5716 5716 5698 5687 5668 5667 5663 5658 5653 5649 5647 5637 5629 5624 5619 5612 5612 5606 5601 5597 5591 5585 5580 5575 5576 5574 5574 5573 5572 5567 5565 5560 5557 5555
5772 5776 5769 5766 5756 5760 5754 5750 5740 5720 5716 5721 5711 5699 5691 5669 5652 5645 5647 5645 5641 5633 5623 5616 5614 5607 5603 5599 5596 5589 5582 5576 5572 5565 5563 5557 5559 5558 5553 5553 5550 5546 5545 5541
5759 5763 5761 5753 5746 5757 5738 5746 5737 5726 5720 5706 5698 5688 5698 5688 5653 5638 5636 5632 5628 5622 5618 5610 5606 5601 5597 5594 5586 5579 5570 5565 5559 5553 5548 5546 5542 5541 5540 5537 5534 5533 5532 5530
5765 5773 5762 5754 5751 5751 5745 5733 5729 5725 5721 5703 5706 5694 5685 5670 5665 5654 5633 5624 5621 5613 5607 5601 5600 5596 5591 5586 5577 5569 5560 5553 5547 5542 5538 5533 5527 5523 5522 5521 5520 5521 5519 5516
5754 5750 5757 5756 5747 5742 5737 5730 5716 5713 5716 5712 5703 5687 5652 5649 5648 5644 5632 5619 5610 5603 5586 5581 5593 5589 5580 5570 5562 5554 5551 5544 5539 5532 5526 5521 5515 5512 5511 5507 5506 5503 5506 5505
5740 5726 5740 5745 5733 5724 5724 5716 5704 5670 5688 5698 5701 5677 5630 5636 5637 5636 5625 5609 5599 5585 5581 5578 5583 5571 5566 5559 5548 5544 5541 5534 5528 5523 5514 5512 5505 5501 5498 5495 5492 5491 5487 5487
5734 5719 5734 5732 5734 5730 5719 5705 5706 5685 5703 5687 5701 5647 5635 5626 5619 5617 5609 5604 5587 5583 5581 5575 5570 5561 5548 5546 5538 5536 5531 5525 5518 5509 5503 5498 5491 5489 5486 5481 5478 5480 5475 5473
5733 5713 5721 5721 5726 5721 5707 5705 5684 5696 5662 5659 5691 5661 5623 5620 5612 5605 5602 5586 5584 5584 5571 5566 5557 5546 5538 5535 5534 5527 5521 5512 5506 5499 5493 5488 5481 5476 5471 5469 5467 5465 5463 5462
5735 5725 5704 5712 5696 5686 5692 5686 5682 5676 5672 5661 5663 5629 5628 5621 5618 5606 5601 5593 5586 5573 5566 5554 5541 5536 5536 5533 5527 5518 5509 5501 5499 5491 5485 5479 5472 5468 5466 5462 5458 5455 5455 5455
5716 5711 5695 5689 5688 5688 5681 5671 5672 5666 5653 5655 5654 5615 5632 5623 5614 5607 5596 5585 5574 5565 5555 5545 5543 5538 5531 5524 5516 5507 5500 5496 5492 5484 5476 5469 5466 5461 5457 5453 5450 5447 5446 5447
5708 5691 5682 5667 5669 5682 5665 5667 5667 5662 5661 5643 5644 5621 5627 5616 5608 5598 5590 5574 5565 5557 5548 5541 5537 5530 5518 5509 5503 5499 5495 5491 5486 5477 5471 5464 5455 5448 5449 5448 5447 5445 5443 5444
5701 5683 5674 5668 5660 5662 5654 5656 5663 5660 5650 5642 5628 5626 5621 5608 5599 5589 5576 5569 5554 5543 5539 5534 5527 5518 5508 5501 5495 5491 5486 5482 5479 5477 5469 5460 5451 5446 5445 5448 5446 5446 5447 5443
5692 5667 5669 5664 5661 5660 5654 5651 5650 5644 5641 5629 5627 5621 5612 5601 5593 5582 5571 5553 5546 5537 5531 5524 5515 5508 5499 5493 5490 5488 5485 5484 5483 5476 5470 5459 5451 5450 5451 5449 5448 5448 5449 5450
5681 5660 5664 5651 5656 5655 5648 5648 5648 5641 5635 5635 5627 5606 5608 5594 5586 5572 5557 5550 5539 5533 5524 5516 5510 5499 5493 5490 5487 5488 5489 5485 5483 5478 5471 5462 5458 5459 5460 5460 5459 5457 5456 5458
5672 5662 5657 5650 5651 5649 5645 5642 5642 5640 5638 5622 5613 5608 5601 5588 5575 5562 5552 5542 5535 5527 5518 5512 5501 5494 5490 5490 5489 5491 5489 5487 5483 5481 5479 5473 5470 5464 5463 5463 5461 5462 5462 5465
5664 5660 5660 5649 5649 5633 5643 5649 5642 5633 5634 5623 5615 5605 5596 5585 5569 5559 5550 5539 5528 5520 5512 5507 5496 5492 5492 5491 5494 5491 5489 5486 5483 5483 5482 5479 5478 5472 5470 5468 5467 5467 5467 5466
5670 5663 5647 5640 5639 5641 5640 5639 5633 5625 5621 5615 5608 5597 5586 5575 5565 5553 5541 5530 5521 5510 5505 5497 5492 5491 5492 5495 5491 5490 5489 5488 5486 5485 5484 5483 5482 5482 5476 5478 5476 5474 5474 5474
5662 5664 5655 5646 5633 5627 5634 5636 5637 5633 5606 5608 5602 5595 5583 5571 5570 5549 5536 5526 5516 5508 5498 5494 5494 5494 5495 5492 5491 5492 5493 5491 5488 5487 5486 5487 5485 5484 5482 5485 5485 5483 5484 5484
5655 5653 5643 5636 5634 5637 5637 5635 5635 5614 5601 5603 5597 5588 5578 5570 5556 5541 5531 5521 5509 5501 5499 5496 5494 5494 5491 5490 5492 5494 5495 5492 5490 5492 5491 5492 5491 5490 5491 5493 5491 5491 5489 5489
5649 5645 5641 5641 5633 5622 5632 5633 5617 5610 5604 5598 5590 5582 5570 5558 5546 5535 5525 5511 5501 5497 5498 5496 5494 5493 5492 5493 5495 5495 5496 5494 5494 5497 5497 5496 5496 5498 5500 5499 5499 5500 5500 5502
5644 5641 5638 5635 5631 5627 5627 5621 5615 5611 5602 5592 5584 5574 5564 5552 5540 5530 5515 5503 5496 5494 5494 5493 5497 5497 5495 5495 5496 5496 5497 5499 5502 5502 5502 5502 5503 5504 5505 5505 5505 5508 5509 5511
5643 5644 5641 5634 5629 5628 5621 5616 5611 5605 5595 5587 5578 5568 5560 5548 5537 5522 5511 5500 5495 5491 5494 5491 5497 5497 5498 5497 5499 5499 5502 5505 5506 5508 5508 5507 5508 5508 5508 5509 5510 5511 5510 5513
5639 5642 5635 5635 5633 5626 5618 5614 5605 5596 5588 5580 5573 5564 5555 5545 5534 5522 5508 5501 5492 5490 5491 5491 5495 5497 5498 5498 5502 5503 5506 5509 5510 5510 5510 5510 5512 5513 5512 5511 5510 5513 5504 5506
5634 5627 5634 5625 5625 5622 5615 5608 5601 5591 5582 5575 5566 5557 5550 5543 5532 5519 5510 5502 5493 5495 5487 5492 5496 5498 5498 5497 5504 5506 5507 5508 5510 5512 5515 5512 5514 5519 5521 5519 5514 5506 5507 5507